{"data":{"norad_id":62901,"epoch":"2026-05-24T22:24:15.899904Z","epoch_age_seconds":76741,"freshness":"FRESH","line1":"1 62901U 25025B   26144.93351736  .00003825  00000+0  21041-3 0  9994","line2":"2 62901  45.0022 335.2207 0007677 339.7667  20.2907 15.15789209 72100","mean_motion":15.15789209,"eccentricity":0.0007677,"inclination_deg":45.0022,"raan_deg":335.2207,"arg_perigee_deg":339.7667,"mean_anomaly_deg":20.2907,"bstar":0.00021041,"rev_number":7210,"period_min":95.000016588718,"perigee_km":513.28901624208,"apogee_km":523.87824109534,"semimajor_km":6896.7206286687,"source":"CELESTRAK","updated_at":"2026-05-25T13:38:03.353891Z"}}